Pagina principale
METAR-TAF:

METAR-TAF

Aeroporti :

Albenga, Italia

Aeroporto di Albenga

latitudine: 44-03N, longitudine: 008-07E, altezza: 45 m

Osservazione

Il bollettino è stato emesso 2 ore e 43 minuti fa, alle 17:50 UTC
Vento 4 kt da sud-ovest
Temperature 30°C
Umidità 29%
Pressione 1003 hPa
Visibilità 10 km o più
nessuna nube inferiore a 1500 m e nessun cumulonembo

METAR: LIMG 251750Z 22004KT CAVOK 30/10 Q1003

Ora: 22:33 (20:33 UTC)


TAF: mancante

Osservazioni e previsioni meteorologiche di più di 4000 aeroporti (messaggi METAR e TAF).

Le stazioni disponibili sono rappresentate dai dischi gialli e rossi sulla carta.

Puntare il mouse per vedere il nome della stazione.

Clicca sopra per visualizzare le osservazioni e previsioni meteorologiche.

Per cambiare la mappa : fare clic sui pulsanti verdi con una croce nera per ingrandire, il pulsante verde con un trattino per diminuire, o sulla freccia verde per le mappe adiacenti.


METAR-TAF: